Poughkeepsie, NY

6:58 PM EST on January 16, 2018 (GMT -0500)
Dutchess County

Weather History for KPOU - October, 2011

Change the Weather History Date:

Sunday, October 30, 2011

  Actual Average Record
Temperature  
Mean Temperature 38 °F 46 °F  
Max Temperature 49 °F 58 °F 75 °F (1950)
Min Temperature 26 °F 35 °F 21 °F (1969)
Degree Days  
Heating Degree Days 27 19  
Month to date heating degree days 325 419  
Since 1 July heating degree days 385 559  
Cooling Degree Days 0 0  
Month to date cooling degree days 0 0  
Year to date cooling degree days 908 668  
Moisture  
Dew Point 28 °F    
Average Humidity 78    
Maximum Humidity 100    
Minimum Humidity 37    
Precipitation  
Precipitation T in 0.13 in 1.61 in (1955)
Month to date precipitation 4.10 4.34  
Year to date precipitation 51.86 39.40  
Sea Level Pressure  
Sea Level Pressure 30.10 in    
Wind  
Wind Speed 3 mph (NW)    
Max Wind Speed 15 mph    
Max Gust Speed 24 mph    
Visibility 8 miles    
Events Snow    
T = Trace of Precipitation, MM = Missing Value Source: NWS Daily Summary

Daily Weather History Graph

Daily Weather History Graph

Search for Another Location

Airport or City:

Trip Planner

Search our weather history database for the weather conditions in past years. The results will help you decide how hot, cold, wet, or windy it might be!

Date:

Astronomy

Oct. 30, 2011 Rise Set
Actual Time 7:24 AM EDT 5:53 PM EDT
Civil Twilight 6:55 AM EDT 6:21 PM EDT
Nautical Twilight 6:23 AM EDT 6:54 PM EDT
Astronomical Twilight 5:51 AM EDT 7:26 PM EDT
Moon 11:44 AM EDT (10/30) 9:16 PM EDT (10/30)
Length of Visible Light 11h 25m
Length of Day
10h 28m
Waxing Crescent, 20% of the Moon is Illuminated
Oct 30
Waxing Crescent
Nov 2
First Quarter
Nov 10
Full
Nov 18
Last Quarter
Nov 25
New

Hourly Weather History & Observations

Time (EDT) Temp. Windchill Dew Point Humidity Pressure Visibility Wind Dir Wind Speed Gust Speed Precip Events Conditions
12:07 AM 33.8 °F 26.4 °F 30.2 °F 87% 29.93 in 2.0 mi NNW 9.2 mph 17.3 mph 0.00 in Snow Light Snow
12:53 AM 34.0 °F 24.2 °F 30.9 °F 89% 29.94 in 2.5 mi North 15.0 mph 20.7 mph 0.00 in Snow Light Snow
1:04 AM 33.8 °F 25.8 °F 30.2 °F 87% 29.94 in 3.0 mi NNW 10.4 mph 24.2 mph 0.00 in Snow Light Snow
1:15 AM 33.8 °F 25.8 °F 30.2 °F 87% 29.94 in 5.0 mi North 10.4 mph 19.6 mph 0.00 in Snow Light Snow
1:32 AM 33.8 °F 26.4 °F 30.2 °F 87% 29.94 in 9.0 mi NNW 9.2 mph 18.4 mph 0.00 in   Overcast
1:53 AM 34.0 °F 25.5 °F 30.9 °F 89% 29.94 in 7.0 mi NNW 11.5 mph 20.7 mph 0.00 in Snow Light Snow
2:53 AM 33.1 °F 28.7 °F 30.9 °F 92% 29.94 in 10.0 mi NNW 4.6 mph - 0.00 in   Mostly Cloudy
3:53 AM 30.9 °F - 28.9 °F 92% 29.94 in 9.0 mi Calm Calm - N/A   Clear
4:53 AM 33.1 °F - 28.9 °F 85% 29.96 in 10.0 mi Calm Calm - N/A   Clear
5:53 AM 30.9 °F 26.2 °F 28.0 °F 89% 29.98 in 10.0 mi West 4.6 mph - N/A   Clear
6:53 AM 32.0 °F 28.7 °F 27.0 °F 82% 30.00 in 10.0 mi West 3.5 mph - N/A   Clear
7:53 AM 26.6 °F - 26.6 °F 100% 30.05 in 0.8 mi Calm Calm - N/A   Clear
8:03 AM 28.4 °F - 26.6 °F 93% 30.06 in 2.0 mi Calm Calm - N/A   Clear
8:11 AM 26.6 °F - 26.6 °F 100% 30.06 in 1.2 mi Calm Calm - N/A   Clear
8:19 AM 28.4 °F 23.3 °F 26.6 °F 93% 30.07 in 0.8 mi WNW 4.6 mph - N/A   Clear
8:30 AM 32.0 °F 28.7 °F 26.6 °F 80% 30.08 in 10.0 mi NW 3.5 mph - N/A   Clear
8:53 AM 35.1 °F 28.6 °F 27.0 °F 72% 30.09 in 10.0 mi WNW 8.1 mph - N/A   Clear
9:53 AM 37.9 °F 33.5 °F 28.0 °F 68% 30.12 in 10.0 mi NNW 5.8 mph - N/A   Clear
10:53 AM 39.0 °F 34.0 °F 28.9 °F 67% 30.13 in 10.0 mi West 6.9 mph - N/A   Clear
11:53 AM 42.8 °F 38.6 °F 26.6 °F 53% 30.16 in 10.0 mi WNW 6.9 mph - N/A   Clear
12:53 PM 44.1 °F 40.1 °F 24.1 °F 45% 30.17 in 10.0 mi WNW 6.9 mph - N/A   Clear
1:53 PM 46.0 °F 42.5 °F 23.0 °F 40% 30.17 in 10.0 mi Variable 6.9 mph - N/A   Clear
2:53 PM 46.9 °F - 21.9 °F 37% 30.17 in 10.0 mi WSW 4.6 mph - N/A   Clear
3:53 PM 48.0 °F - 24.1 °F 39% 30.18 in 10.0 mi NNW 6.9 mph - N/A   Clear
4:53 PM 46.9 °F - 25.0 °F 42% 30.20 in 10.0 mi Calm Calm - N/A   Clear
5:53 PM 39.9 °F - 30.0 °F 68% 30.21 in 10.0 mi Calm Calm - N/A   Clear
6:53 PM 35.6 °F - 30.2 °F 81% 30.25 in 10.0 mi Calm Calm - N/A   Clear
7:53 PM 32.0 °F - 28.9 °F 88% 30.28 in 10.0 mi Calm Calm - N/A   Clear
8:53 PM 30.9 °F - 28.0 °F 89% 30.29 in 9.0 mi Calm Calm - N/A   Clear
9:53 PM 30.0 °F - 27.0 °F 88% 30.30 in 6.0 mi Calm Calm - N/A   Clear
10:53 PM 28.9 °F - 27.0 °F 92% 30.31 in 7.0 mi Calm Calm - N/A   Clear
11:53 PM 28.0 °F - 26.1 °F 92% 30.33 in 6.0 mi Calm Calm - N/A   Clear